Skip Page Navigation
NASA JPL Caltech
NASA Logo - Jet Propulsion Laboratory + View the NASA Portal
+ Center for Near-Earth Object Studies
JPL Home Earth Solar System Stars & Galaxies Technology
JPL Solar System Dynamics
BODIES ORBITS EPHEMERIDES TOOLS PHYSICAL DATA DISCOVERY FAQ SITE MAP
JPL Small-Body Database Browser
Search: [ help ]  
160992 (2002 CE192)
Classification: Main-belt Asteroid          SPK-ID: 2160992
Ephemeris | Orbit Diagram | Orbital Elements | Mission Design | Physical Parameters | Discovery Circumstances ]

[ show orbit diagram ]
Orbital Elements at Epoch 2459200.5 (2020-Dec-17.0) TDB
Reference: JPL 23 (heliocentric ecliptic J2000)
 Element Value Uncertainty (1-sigma)   Units 
e .1932399243608246 3.8348e-08  
a 2.422579264674989 1.5409e-08 au
q 1.954440230811092 9.59e-08 au
i 3.523224233399926 4.8417e-06 deg
node 84.3454212314263 7.4618e-05 deg
peri 206.5213577834724 7.5896e-05 deg
M 209.4193187250021 1.5383e-05 deg
tp 2459776.579176820379
(2022-Jul-16.07917682)
6.1068e-05 TDB
period 1377.258370060056
3.77
1.314e-05
3.598e-08
d
yr
n .2613888634303976 2.4938e-09 deg/d
Q 2.890718298538886 1.8386e-08 au
  Orbit Determination Parameters
   # obs. used (total)      430  
   data-arc span      7008 days (19.19 yr)  
   first obs. used      2002-01-09  
   last obs. used      2021-03-18  
   planetary ephem.      DE441  
   SB-pert. ephem.      SB441-N16  
   condition code      0  
   norm. resid. RMS      .58118  
   source      ORB  
   producer      Otto Matic  
   solution date      2021-May-04 09:50:09  

Additional Information
 Earth MOID = .936995 au 
 Jupiter MOID = 2.28998 au 
 T_jup = 3.484 
[ show covariance matrix ]

Ephemeris | Orbit Diagram | Orbital Elements | Mission Design | Physical Parameters | Discovery Circumstances ]

Physical Parameter Table
Parameter Symbol Value Units Sigma Reference Notes
absolute magnitude H 16.49   n/a MPCxxxxx  

160992 (2002 CE192)          Discovered 2002-Feb-10 by LINEAR at Socorro
Reference: 20070828/Numbers.arcLast Updated: 2007-08-30
Ephemeris | Orbit Diagram | Orbital Elements | Mission Design | Physical Parameters | Discovery Circumstances ]
ABOUT SSD CREDITS/AWARDS PRIVACY/COPYRIGHT GLOSSARY LINKS
FirstGov 2021-May-10 06:20 UT
(server date/time)  
NASA Home Page
Site Manager:   Ryan S. Park
Webmaster  Alan B. Chamberlin